BEIJING 1

Last updated on Thu Jul 03 2025 00:02:36 GMT+0000 (Coordinated Universal Time)

1 28890U 05043A 25183.61118200 .00000223 00000+0 52787-4 0 9996 2 28890 98.2457 310.9697 0013499 298.1119 61.8718 14.63175081 49523
UTC large
Height (km)
Speed (km/s)
/
Latitude / Longitude
Inclination (degrees)
Orbital Period (minutes)
Azimuth
Elevation
Range (km)
Doppler Factor

Next 0 passes for location: London (51.5072 / 0.1276)

Sorry there are no passes over London.